This is the latest recevied weather packets stored in our database for station/object EA6AMR-10. If no packets are shown the sender has not sent any weather packets the latest 1 day(s).
| Time | Temp. | Humidity | Pressure | Rain* | Wind** | Luminosity | Snow |
|---|---|---|---|---|---|---|---|
| 1778107489 | 16.11° C | 64% | 1012.9 hPa | - | - | - | - |
| 1778103888 | 16.11° C | 64% | 1013.1 hPa | - | - | - | - |
| 1778102988 | 16.11° C | 64% | 1013.2 hPa | - | - | - | - |
| 1778099391 | 16.11° C | 64% | 1013.1 hPa | - | - | - | - |
| 1778098491 | 16.11° C | 64% | 1013.1 hPa | - | - | - | - |
| 1778094890 | 17.22° C | 64% | 1012.3 hPa | - | - | - | - |
| 1778093990 | 17.78° C | 64% | 1012.1 hPa | - | - | - | - |
| 1778090389 | 21.67° C | 61% | 1011.7 hPa | - | - | - | - |
| 1778089489 | 21.67° C | 61% | 1011.7 hPa | - | - | - | - |
| 1778086006 | 19.44° C | 62% | 1011.8 hPa | - | - | - | - |
| 1778084988 | 19.44° C | 63% | 1011.8 hPa | - | - | - | - |
| 1778084088 | 18.33° C | 63% | 1011.9 hPa | - | - | - | - |
| 1778080487 | 18.33° C | 57% | 1011.6 hPa | - | - | - | - |
| 1778078685 | 23.33° C | 53% | 1011.3 hPa | - | - | - | - |
| 1778077791 | 24.44° C | 52% | 1011.4 hPa | - | - | - | - |
| 1778076891 | 25.56° C | 51% | 1011.5 hPa | - | - | - | - |
| 1778075991 | 26.67° C | 49% | 1011.6 hPa | - | - | - | - |
| 1778068789 | 28.33° C | 49% | 1011.5 hPa | - | - | - | - |
| 1778067889 | 28.33° C | 50% | 1011.4 hPa | - | - | - | - |
| 1778064288 | 29.44° C | 52% | 1011.8 hPa | - | - | - | - |
| 1778063388 | 31.67° C | 52% | 1011.8 hPa | - | - | - | - |
| 1778062488 | 32.22° C | 52% | 1011.9 hPa | - | - | - | - |
| 1778060687 | 31.11° C | 52% | 1012 hPa | - | - | - | - |
| 1778059787 | 30.56° C | 52% | 1011.8 hPa | - | - | - | - |
| 1778058886 | 30° C | 52% | 1011.7 hPa | - | - | - | - |
* Rain since midnight (hover to see other rain measurements)
** Current wind speed in m/s (hover to see current wind gust speed)